x

Neah Bay, - 6nm North Of Cape Flattery, Wa (traffic Separation Lighted Buoy) (46087) Weather Station

6:20 - Sun 20th Apr 2014 All times are PDT. -7 hours from GMT.

  • Wind
    13mph, 18mph gusts
  • Sea Temp 47°f
  • Air Temp 48°f
  • Sea Pressure 1021.6mb
  • Neah Bay, - 6nm North Of Cape Flattery, Wa     (traffic Separation Lighted Buoy)
  • Neah Bay, - 6nm North Of Cape Flattery, Wa     (traffic Separation Lighted Buoy)

More Historic Weather Station data

Upgrade to MSW Pro to gain access to the past 30 days of data for over 8000 Wavebouys and Weather Stations around the globe.

Join Pro

Comparision Forecast

View Surf forecast
   
dim. 04/20 6:20  -   -   -  13 18 mph 1021.6mb 47f 48f
5:50 13ft 15s 10s 16 20 mph 1021.7mb 47f 47f
5:20  -   -   -  16 20 mph 1022mb 47f 48f
4:50 12ft 15s 10s 18 22 mph 1022mb 47f 48f
4:20  -   -   -  18 25 mph 1022.4mb 47f 47f
3:50 13ft 15s 10s 18 22 mph 1022.6mb 47f 47f
3:20  -   -   -  18 25 mph 1023mb 47f 47f
2:50 15ft 15s 11s 13 20 mph 1023.5mb 47f 47f
2:20  -   -   -  16 22 mph 1023.7mb 47f 47f
1:50 15ft 15s 11s 18 25 mph 1023.7mb 47f 47f
1:20  -   -   -  18 25 mph 1023.9mb 47f 47f
12:50 13ft 16s 11s 16 22 mph 1023.9mb 47f 47f
12:20  -   -   -  13 20 mph 1024.2mb 47f 47f
11:50 15ft 16s 11s 18 25 mph 1024mb 47f 47f
11:20  -   -   -  18 25 mph 1023.8mb 47f 47f
10:50 15ft 16s 12s 18 22 mph 1023.8mb 47f 47f
10:20  -   -   -  16 22 mph 1023.8mb 47f 48f
9:50 16ft 15s 11s 13 20 mph 1023.8mb 47f 47f
9:20  -   -   -  13 20 mph 1023.7mb 47f 47f
8:50 18.5ft 17s 11s 11 18 mph 1023.8mb 47f 47f
8:20  -   -   -  16 27 mph 1024mb 47f 46f
7:50 16ft 17s 11s 13 20 mph 1023.6mb 47f 47f
7:20  -   -   -  13 18 mph 1023.4mb 47f 47f
6:50 17.5ft 16s 10s 13 20 mph 1023.1mb 47f 47f
6:20  -   -   -  13 18 mph 1022.9mb 47f 47f
5:50 17.5ft 17s 10s 9 13 mph 1022.8mb 47f 47f
5:20  -   -   -  11 13 mph 1022.9mb 47f 48f
4:50  -   -   -  9 11 mph 1022.8mb 47f 48f
4:20  -   -   -  9 11 mph 1022.8mb 47f 48f
3:50 19.5ft 16s 11s 11 13 mph 1022.6mb 47f 48f
3:20  -   -   -  9 13 mph 1022.5mb 47f 48f
2:50 16.5ft 16s 10s 7 11 mph 1022.3mb 47f 48f
2:20  -   -   -  7 11 mph 1022mb 47f 48f
1:50 19.5ft 16s 12s 11 13 mph 1021.9mb 47f 49f
1:20  -   -   -  7 11 mph 1021.7mb 47f 48f
12:50 19.5ft 16s 12s 9 13 mph 1021.4mb 47f 49f
12:20  -   -   -  9 13 mph 1021mb 47f 49f
sam. 04/19 11:50 17.5ft 15s 11s 13 18 mph 1020.4mb 47f 49f
11:20  -   -   -  13 18 mph 1020mb 48f 49f
10:50 13.5ft 11s 11s 16 20 mph 1019.5mb 48f 49f
10:20  -   -   -  13 22 mph 1019.1mb 48f 49f
9:50 11ft 11s 9s 11 16 mph 1018.6mb 47f 48f
9:20  -   -   -  11 13 mph 1017.9mb 47f 47f
8:50 9ft 11s 8s 13 16 mph 1017.2mb 47f 47f
8:20  -   -   -  22 29 mph 1016.5mb 47f 47f
7:50 8ft 11s 7s 16 18 mph 1015.7mb 47f 47f
7:20  -   -   -  18 22 mph 1015.2mb 47f 47f
6:50 8ft 10s 7s 13 18 mph 1014.7mb 47f 49f
6:20  -   -   -  16 20 mph 1014mb 47f 49f
5:50 7.5ft 10s 7s 16 18 mph 1013.3mb 47f 49f
5:20  -   -   -  13 18 mph 1012.7mb 47f 47f
4:50 8ft 10s 7s 16 25 mph 1012.1mb 47f 48f
4:20  -   -   -  16 20 mph 1011.6mb 47f 48f
3:50 8ft 9s 7s 18 22 mph 1010.9mb 47f 48f
3:20  -   -   -  20 22 mph 1010.4mb 47f 48f
2:50 8ft 9s 7s 16 20 mph 1009.8mb 47f 49f
2:20  -   -   -  18 22 mph 1009mb 47f 49f
1:50 7ft 9s 7s 16 25 mph 1008.5mb 47f 49f
1:20  -   -   -  16 20 mph 1008.2mb 47f 46f
12:50 6ft 8s 6s 16 20 mph 1007.9mb 47f 46f
12:20  -   -   -  20 22 mph 1007.5mb 47f 46f
11:50 5ft 9s 6s 20 22 mph 1007.3mb 47f 45f
11:20  -   -   -  20 25 mph 1007.3mb 47f 46f
10:50 5ft 8s 6s 22 27 mph 1006.8mb 47f 46f
10:20  -   -   -  22 27 mph 1006.9mb 47f 47f
9:50 4ft 10s 6s 20 25 mph 1007mb 47f 47f
9:20  -   -   -  20 22 mph 1007.3mb 47f 46f
8:50 4.5ft 9s 5s 20 25 mph 1007.1mb 47f 47f
8:20  -   -   -  25 29 mph 1007.1mb 48f 47f
7:50 4ft 8s 5s 22 27 mph 1007mb 48f 48f
7:20  -   -   -  25 29 mph 1006.4mb 48f 48f
6:50  -   -   -  20 25 mph 1006.3mb 48f 47f
6:20  -   -   -  22 27 mph 1005.9mb 48f 47f
5:50 4.5ft 10s 6s 22 27 mph 1006.1mb 48f 47f
5:20  -   -   -  22 27 mph 1006.2mb 48f 49f
4:50 4.5ft 10s 6s 22 27 mph 1006.6mb 48f 49f
4:20  -   -   -  20 29 mph 1007.8mb 48f 48f
3:50 5ft 10s 7s 16 20 mph 1008.2mb 48f 48f
3:20  -   -   -  16 20 mph 1009.5mb 48f 48f
2:50 5ft 10s 8s 16 18 mph 1009.7mb 48f 48f
2:20  -   -   -  13 18 mph 1009.9mb 48f 48f
1:50 5ft 14s 9s 16 18 mph 1010.4mb 48f 47f
1:20  -   -   -  13 18 mph 1010.9mb 48f 47f
12:50 5ft 10s 8s 16 18 mph 1011.2mb 48f 47f
12:20  -   -   -  18 20 mph 1011.1mb 48f 47f
ven. 04/18 11:50 6ft 11s 9s 13 16 mph 1011.9mb 48f 47f
11:20  -   -   -  13 18 mph 1012.6mb 48f 47f
10:50 6.5ft 11s 9s 16 18 mph 1013mb 48f 47f
10:20  -   -   -  13 18 mph 1013.4mb 48f 48f
9:50 6.5ft 11s 9s 11 16 mph 1013.8mb 48f 48f
9:20  -   -   -  9 11 mph 1014.7mb 49f 48f
8:50 6.5ft 10s 8s 7 9 mph 1015mb 49f 48f
8:20  -   -   -  4 7 mph 1015.2mb 49f 48f
7:50 6ft 10s 8s 2 4 mph 1015.7mb 49f 48f
7:20  -   -   -  2
mph
1016.2mb 49f 48f
6:50 6ft 9s 8s 4 7 mph 1016.7mb 49f 48f
6:20  -   -   -  2 4 mph 1017.3mb 49f 49f
5:50 7ft 11s 8s  -  2 mph 1017.7mb 49f 49f
5:20  -   -   -  4 7 mph 1018.3mb 49f 49f
4:50 7.5ft 10s 7s 7 9 mph 1018.6mb 49f 49f
4:20  -   -   -  7 9 mph 1018.9mb 48f 49f
3:50 8ft 10s 8s 9
mph
1019.2mb 48f 48f
3:20  -   -   -  11 13 mph 1019.4mb 48f 48f
2:50 7.5ft 11s 7s 11 13 mph 1019.6mb 49f 48f
2:20  -   -   -  11 13 mph 1019.7mb 48f 48f
1:50 8ft 10s 8s 9
mph
1019.6mb 48f 48f
1:20  -   -   -  7 9 mph 1019.8mb 48f 48f
12:50 9.5ft 10s 8s 2 4 mph 1020mb 48f 48f
12:20  -   -   -  4 7 mph 1020mb 48f 47f
11:50 9ft 11s 8s 4 7 mph 1020mb 48f 46f
11:20  -   -   -  2 7 mph 1019.9mb 48f 46f
10:50 9.5ft 10s 8s 4 7 mph 1019.8mb 48f 47f
10:20  -   -   -  7 9 mph 1019.6mb 48f 46f
9:50 8.5ft 10s 8s 7 9 mph 1019.4mb 47f 46f
9:20  -   -   -  11 13 mph 1019.2mb 47f 45f
8:50 8ft 10s 7s 9 11 mph 1018.8mb 47f 46f
8:20  -   -   -  11 18 mph 1018.4mb 47f 47f
7:50 8ft 11s 7s 9 11 mph 1018.1mb 47f 48f
7:20  -   -   -  13 16 mph 1017.8mb 47f 48f
6:50 9ft 8s 7s 13 18 mph 1017.3mb 48f 47f
6:20  -   -   -  16 18 mph 1016.7mb 48f 47f
5:50 9ft 11s 7s 18 22 mph 1016.4mb 48f 48f
4:50 10ft 8s 7s 18 25 mph 1015.9mb 48f 48f
4:20  -   -   -  20 22 mph 1015.5mb 48f 48f
3:50 10.5ft 8s 7s 18 22 mph 1015mb 48f 48f
3:20  -   -   -  18 22 mph 1014.7mb 48f 48f
2:50 11ft 8s 7s 20 27 mph 1014.4mb 48f 48f
2:20  -   -   -  22 29 mph 1014.2mb 48f 47f
1:50 11ft 8s 7s 22 27 mph 1014mb 48f 48f
1:20  -   -   -  22 27 mph 1013.7mb 48f 48f
12:50 10.5ft 9s 7s 22 29 mph 1013.4mb 48f 48f
12:20  -   -   -  22 29 mph 1013mb 48f 48f
jeu. 04/17 11:50 10.5ft 8s 7s 25 31 mph 1012.5mb 48f 48f
11:20  -   -   -  25 31 mph 1012.2mb 48f 48f
10:50 10ft 8s 7s 25 31 mph 1011.7mb 48f 48f
10:20  -   -   -  25 29 mph 1011.3mb 48f 48f
9:50 9ft 8s 6s 25 31 mph 1010.9mb 48f 49f
9:20  -   -   -  25 31 mph 1010.4mb 48f 49f
8:50 8.5ft 11s 6s 25 31 mph 1009.7mb 48f 49f
8:20  -   -   -  27 31 mph 1009mb 48f 49f
7:50 9ft 11s 6s 27 31 mph 1008.5mb 48f 49f
7:20  -   -   -  27 31 mph 1008.1mb 48f 49f
6:50 8.5ft 11s 6s 27 34 mph 1007.8mb 48f 49f
6:20  -   -   -  27 34 mph 1007.5mb 48f 49f
5:50 9ft 11s 7s 25 31 mph 1007.2mb 48f 48f
5:20  -   -   -  25 27 mph 1006.8mb 48f 47f
4:50 9ft 11s 7s 20 27 mph 1006.5mb 48f 47f
4:20  -   -   -  18 22 mph 1006.2mb 48f 47f
3:50  -   -   -  22 27 mph 1005.7mb 48f 47f
3:20  -   -   -  25 31 mph 1005mb 48f 47f
2:50 8ft 11s 7s 20 31 mph 1004.4mb 48f 48f
2:20  -   -   -  16 22 mph 1005.4mb 48f 48f
1:50 8ft 11s 7s 16 20 mph 1005.9mb 48f 48f
1:20  -   -   -  18 22 mph 1006mb 48f 48f
12:50 7ft 11s 7s 16 20 mph 1006.3mb 48f 48f
12:20  -   -   -  18 22 mph 1006.5mb 48f 48f
11:50 6.5ft 11s 7s 18 25 mph 1006.8mb 48f 48f
11:20  -   -   -  18 22 mph 1007.3mb 48f 48f
10:50 6.5ft 10s 8s 16 20 mph 1007.8mb 48f 48f
10:20  -   -   -  13 18 mph 1008.2mb 48f 48f
9:50 6ft 11s 8s 11 16 mph 1008.4mb 48f 49f
9:20  -   -   -  13 16 mph 1008.6mb 48f 49f
8:50 6ft 12s 9s 11 13 mph 1008.9mb 48f 49f
8:20  -   -   -  11 16 mph 1009.2mb 48f 48f
7:50 6.5ft 12s 8s 11 16 mph 1009.1mb 48f 48f
7:20  -   -   -  9 16 mph 1009.4mb 48f 48f
6:50 7ft 11s 8s 7 9 mph 1009.4mb 48f 48f
6:20  -   -   -  9 11 mph 1009.6mb 48f 48f
5:50 8ft 11s 8s 9 11 mph 1009.8mb 48f 49f
5:20  -   -   -  9 11 mph 1009.9mb 48f 49f
4:50 8ft 11s 8s 11 13 mph 1010.1mb 48f 48f
4:20  -   -   -  11 16 mph 1010.3mb 48f 49f
3:50 7.5ft 11s 8s 13 18 mph 1010.5mb 48f 49f
3:20  -   -   -  13 16 mph 1010.4mb 48f 49f
2:50 8ft 11s 7s 16 18 mph 1010.6mb 48f 49f